Regional Weather Roundup
Issued by NWS

Home | Current Version | Previous Version | Text Only | Print | Product List | Glossary On
Versions: 1 2 3 4 5 6 7 8 9 10 11 12 13 14 15 16 17 18 19 20 21 22 23 24 25 26 27 28
000
ASUS45 KTFX 211810
RWRMT
MONTANA REGIONAL WEATHER ROUNDUP
NATIONAL WEATHER SERVICE GREAT FALLS MT
1200 PM MDT MON AUG 21 2017

NOTE: "FAIR" INDICATES FEW OR NO CLOUDS BELOW 12000 FEET WITH NO
SIGNIFICANT WEATHER AND/OR OBSTRUCTIONS TO VISIBILITY.

MTZ001>007-043-211900-
WEST OF THE DIVIDE

CITY           SKY/WX    TMP DP  RH WIND       PRES   REMARKS
KALISPELL      SUNNY     66  44  45 CALM      30.19F
MISSOULA       SUNNY     63  40  42 CALM      30.21F HAZE
BUTTE          SUNNY     63  35  35 CALM      30.28S
MULLAN PASS    SUNNY     58  35  42 CALM      30.31S
ANACONDA         N/A     57  39  51 N3        30.26S
DEER LODGE       N/A     61  39  44 CALM      30.27F
EUREKA           N/A     63  41  45 MISG      30.21S
HAMILTON         N/A     61  43  51 CALM      30.23S
LIBBY            N/A     63  43  48 CALM      30.18S
PLAINS           N/A     64  42  44 CALM      30.19
RONAN            N/A     66  49  54 CALM      30.23F
THOMPSON FALLS   N/A     64  42  44 CALM      30.21F
$$

MTZ008-052>055-211900-
SOUTHWEST MONTANA

CITY           SKY/WX    TMP DP  RH WIND       PRES   REMARKS
BOZEMAN        SUNNY     64  35  34 W3        30.22S
DILLON         SUNNY     61  36  39 CALM      30.24S
W YELLOWSTONE  SUNNY     57  39  51 CALM      30.30S
ENNIS          SUNNY     59  34  38 CALM      30.30S
$$

MTZ009-010-012-014-046-048-049-054-211900-
EAST SLOPES AND CENTRAL MONTANA

CITY           SKY/WX    TMP DP  RH WIND       PRES   REMARKS
CUT BANK       SUNNY     62  36  37 E9        30.22S
GREAT FALLS    SUNNY     65  33  30 CALM      30.20F
MALMSTROM AFB  SUNNY     65  36  33 SW6       30.20S
HELENA         SUNNY     70  36  28 CALM      30.20F
AUGUSTA          N/A     63  33  32 NE7       30.22F
BOWMANS CRNR     N/A     64  34  33 NE8       30.20F
CHOTEAU          N/A     64  36  34 NE7       30.23F
CONRAD           N/A     62  42  47 N2        30.22S
FAIRFIELD        N/A     64  33  31 N7        30.20F
POWER            N/A     63  32  31 N6        30.20F
RAYNESFORD       N/A     64  35  34 N5        30.21F
ULM              N/A     64  36  35 CALM      30.20F
$$

MTZ011-013-016-021-045-047-050-051-211900-
NORTH CENTRAL MONTANA

CITY           SKY/WX    TMP DP  RH WIND       PRES   REMARKS
HAVRE          SUNNY     66  37  34 E12       30.18S
LEWISTOWN      MOSUNNY   66  34  30 NW5       30.21S
N BAR RANCH      N/A     64  28  25 NE5       30.25S
CHINOOK          N/A     64  41  42 SE3       30.18F
DENTON           N/A     65  33  31 NE3       30.16S
GEYSER           N/A     67  34  29 E6        30.20R
GRASS RANGE      N/A     66  30  25 E7        30.17S
JUDITH GAP       N/A     64  35  32 NW8       30.21S
WINIFRED         N/A     64  32  30 NE6       30.19S
$$

MTZ017>020-022>027-061-062-211900-
NORTHEAST MONTANA

CITY           SKY/WX    TMP DP  RH WIND       PRES   REMARKS
GLASGOW        PTSUNNY   70  35  27 NW12      30.14F
JORDAN           N/A     69  33  26 NE7       30.16S
SIDNEY         SUNNY     68  40  35 N12       30.11R
WOLF POINT     CLOUDY    73  37  27 N12       30.12F
MALTA          CLOUDY    68  37  32 NE3       30.17S
PLENTYWOOD       N/A     64  37  36 NW12      30.11R
POPLAR           N/A     66  39  37 N8        30.13S
SCOBEY           N/A     65  36  34 NW9       30.12
$$

MTZ028>42-056>058-211900-
SOUTHCENTRAL AND SOUTHEAST MONTANA

CITY           SKY/WX    TMP DP  RH WIND       PRES   REMARKS
BAKER          SUNNY     70  33  25 N14       30.14R
BILLINGS       MOSUNNY   70  34  26 NE3       30.18S
LIVINGSTON     SUNNY     63  33  32 SW3       30.22S
MILES CITY     SUNNY     72  32  23 E5        30.13S
BIG TIMBER     SUNNY     64  32  29 CALM      30.24S
EKALAKA          N/A     66  31  27 N6        30.12R
HARLOWTON        N/A     67  32  26 MISG      30.20F
LAUREL           N/A     67  37  33 CALM      30.16F
$$

REGIONAL REPORTS...DAKOTAS

CITY           SKY/WX    TMP DP  RH WIND       PRES   REMARKS
WILLISTON      MOSUNNY   68  40  35 N17       30.09S
MINOT          SUNNY     71  45  39 NW26G33   29.96R
DICKINSON      SUNNY     68  41  37 N14       30.06R
BEACH            N/A     66  37  34 N16       30.15R
CROSBY           N/A     66  37  34 NW16G22   30.08S
TIOGA            N/A     64  39  39 NW20      30.08F
WATFORD CITY     N/A     68  41  37 N14G23    30.07S
BISMARCK       SUNNY     70  57  63 W8        29.97F
GRAND FORKS    CLOUDY    71  55  56 CALM      29.92S
FARGO          CLOUDY    69  59  70 S7        29.90F
BUFFALO SD       N/A     72  37  28 N18G25    30.04R
RAPID CITY     SUNNY     69  49  48 N16       30.10R
$$

REGIONAL REPORTS...WYOMING/IDAHO/WASHINGTON

CITY           SKY/WX    TMP DP  RH WIND       PRES   REMARKS
GILLETTE       MOSUNNY   65  36  34 N8        30.18F
SHERIDAN       SUNNY     69  36  29 CALM      30.19S
BUFFALO WY     SUNNY     65  33  30 N6        30.24S
CODY           SUNNY     63  37  38 NE9       30.23S
YELLOWSTONE LA   N/A     52  44  74 CALM      30.38F
IDAHO FALLS    SUNNY     65  37  35 SW6       30.21F
SALMON         SUNNY     61  44  53 CALM      30.21S
BOISE          SUNNY     71  41  33 N3        30.11S
SPOKANE        MOSUNNY   67  45  45 NE7       30.16F
$$

REGIONAL REPORTS...ALBERTA

CITY           SKY/WX    TMP DP  RH WIND       PRES   REMARKS
EDMONTON       MOSUNNY   63  48  59 SW3       30.10F
CALGARY        MOSUNNY   61  41  48 S13       30.17F
LETHBRIDGE     MOSUNNY   63  43  48 SE6       30.19F
MEDICINE HAT   MOSUNNY   66  36  32 VRB2      30.17F
$$

REGIONAL REPORTS...SASKATCHEWAN

CITY           SKY/WX    TMP DP  RH WIND       PRES   REMARKS
SWIFT CURRENT  SUNNY     61  36  39 NW9       30.16S
REGINA         MOSUNNY   66  39  37 NW16      30.08S
SASKATOON      SUNNY     64  43  45 NW10G17   30.10F
$$




USA.gov is the U.S. government's official web portal to all federal, state and local government web resources and services.